KC3BAN-13 Weather Reports


Display with metric or nautical units.
time (UTC)temp
F
wind
direction
speed
MPH
gust
MPH
rain 1hr
in
rain 24hr
in
rain mn
in
humidity
%
barometer
mb
20260831005223 77 236 0.0 0.0 0.00 0.00 0.00 82 1011.7
20260831004723 77 236 0.0 0.0 0.00 0.00 0.00 82 1011.7
20260831004222 77 236 0.0 0.0 0.00 0.00 0.00 83 1011.5
20260831003720 77 236 0.0 0.0 0.00 0.00 0.00 83 1011.5
20260831003220 77 236 0.0 0.0 0.00 0.00 0.00 83 1011.4
20260831002720 77 236 0.0 0.0 0.00 0.00 0.00 83 1011.5
20260831002216 77 236 0.0 0.0 0.00 0.00 0.00 84 1011.3
20260831001716 77 236 0.0 0.0 0.00 0.00 0.00 84 1011.2
20260831001215 77 236 0.0 0.0 0.00 0.00 0.00 84 1011.1
20260831000715 77 236 0.0 0.0 0.00 0.00 0.00 84 1011.2
20260831000440 78 236 0.0 0.0 0.00 0.00 0.00 84 1011.3
20260830235216 78 236 0.0 0.0 0.00 0.00 0.00 84 1011.1
20260830234715 78 236 0.0 0.0 0.00 0.00 0.00 83 1011.1
20260830234216 79 236 0.0 0.0 0.00 0.00 0.00 83 1011.1
20260830233711 79 236 0.0 0.0 0.00 0.00 0.00 82 1011.0
20260830233211 80 236 0.0 0.0 0.00 0.00 0.00 82 1011.1
20260830232712 80 236 0.0 0.0 0.00 0.00 0.00 80 1011.0
20260830232211 81 236 0.0 0.0 0.00 0.00 0.00 80 1011.1
20260830231712 82 236 0.0 0.0 0.00 0.00 0.00 79 1011.3
20260830231213 82 236 0.0 0.0 0.00 0.00 0.00 78 1011.3
20260830230713 83 236 0.0 0.0 0.00 0.00 0.00 77 1011.2
20260830230214 83 236 0.0 0.0 0.00 0.00 0.00 76 1011.4
20260830225714 84 236 0.0 0.0 0.00 0.00 0.00 74 1011.3
20260830225210 84 236 0.0 0.0 0.00 0.00 0.00 73 1011.3
20260830224710 85 236 0.0 2.0 0.00 0.00 0.00 72 1011.3
20260830224210 85 236 0.0 2.0 0.00 0.00 0.00 71 1011.2
20260830223707 86 228 0.0 2.0 0.00 0.00 0.00 71 1011.1
20260830223432 86 231 0.0 2.0 0.00 0.00 0.00 71 1011.0
20260830222707 86 205 0.0 1.0 0.00 0.00 0.00 71 1011.0
20260830222207 86 215 0.0 0.0 0.00 0.00 0.00 72 1011.0
20260830221707 86 215 0.0 1.0 0.00 0.00 0.00 71 1010.9
20260830221208 86 215 0.0 2.0 0.00 0.00 0.00 69 1010.9
20260830220707 86 217 0.0 2.0 0.00 0.00 0.00 68 1010.9
20260830220207 87 213 1.0 3.0 0.00 0.00 0.00 68 1011.0
20260830215707 87 236 1.0 3.0 0.00 0.00 0.00 65 1010.9
20260830215207 88 201 1.0 3.0 0.00 0.00 0.00 66 1010.9
20260830214707 88 222 0.0 3.0 0.00 0.00 0.00 65 1010.8
20260830214207 88 186 0.0 3.0 0.00 0.00 0.00 65 1010.9
20260830213707 88 172 0.0 2.0 0.00 0.00 0.00 63 1010.8
20260830213433 88 221 0.0 3.0 0.00 0.00 0.00 66 1010.8
20260830212707 87 176 1.0 4.0 0.00 0.00 0.00 64 1010.8
20260830212425 87 136 1.0 4.0 0.00 0.00 0.00 65 1010.8
20260830211654 87 236 1.0 5.0 0.00 0.00 0.00 65 1010.8
20260830211150 87 217 1.0 5.0 0.00 0.00 0.00 65 1010.8
20260830210900 87 179 1.0 6.0 0.00 0.00 0.00 65 1010.8
20260830210138 88 233 0.0 6.0 0.00 0.00 0.00 62 1010.9
20260830205631 89 91 0.0 3.0 0.00 0.00 0.00 65 1010.9
20260830205124 89 299 1.0 4.0 0.00 0.00 0.00 63 1010.9
20260830204620 89 120 0.0 4.0 0.00 0.00 0.00 63 1010.9
20260830204112 89 115 0.0 1.0 0.00 0.00 0.00 65 1011.0
20260830203604 89 250 0.0 2.0 0.00 0.00 0.00 63 1011.0
20260830203100 89 250 0.0 3.0 0.00 0.00 0.00 62 1010.9
20260830202813 89 218 0.0 3.0 0.00 0.00 0.00 63 1011.0
20260830202047 89 221 1.0 5.0 0.00 0.00 0.00 64 1011.1
20260830201541 89 231 1.0 5.0 0.00 0.00 0.00 63 1011.1
20260830201035 89 182 1.0 3.0 0.00 0.00 0.00 65 1011.1
20260830200530 89 258 1.0 4.0 0.00 0.00 0.00 66 1011.1
20260830200023 88 138 1.0 4.0 0.00 0.00 0.00 67 1011.2
20260830195741 88 248 1.0 4.0 0.00 0.00 0.00 64 1011.2
20260830195010 88 60 1.0 3.0 0.00 0.00 0.00 66 1011.3
20260830194000 88 257 1.0 4.0 0.00 0.00 0.00 66 1011.5
20260830192958 87 65 1.0 6.0 0.00 0.00 0.00 69 1011.7
20260830192455 87 327 1.0 6.0 0.00 0.00 0.00 67 1011.7
20260830191956 87 231 1.0 7.0 0.00 0.00 0.00 66 1011.8
20260830191456 88 201 1.0 7.0 0.00 0.00 0.00 67 1011.8
20260830190954 88 187 1.0 5.0 0.00 0.00 0.00 66 1011.9
20260830190454 87 176 1.0 5.0 0.00 0.00 0.00 66 1012.1
20260830185956 87 223 1.0 4.0 0.00 0.00 0.00 66 1012.2
20260830185451 87 247 0.0 4.0 0.00 0.00 0.00 66 1012.2
20260830184952 87 300 0.0 2.0 0.00 0.00 0.00 66 1012.4
20260830184451 87 251 0.0 3.0 0.00 0.00 0.00 68 1012.4
20260830183951 87 225 1.0 5.0 0.00 0.00 0.00 69 1012.4
20260830183451 87 229 1.0 5.0 0.00 0.00 0.00 68 1012.5
20260830182951 87 221 2.0 6.0 0.00 0.00 0.00 64 1012.6
20260830182451 88 314 1.0 6.0 0.00 0.00 0.00 64 1012.7
20260830181951 87 205 1.0 8.0 0.00 0.00 0.00 67 1012.8
20260830181452 87 242 1.0 8.0 0.00 0.00 0.00 65 1012.9
20260830180954 87 195 1.0 3.0 0.00 0.00 0.00 66 1012.9
20260830180710 87 186 1.0 5.0 0.00 0.00 0.00 67 1013.0
20260830180207 86 128 2.0 5.0 0.00 0.00 0.00 68 1013.1
20260830175435 86 221 2.0 10.0 0.00 0.00 0.00 66 1013.2
20260830174423 86 224 1.0 5.0 0.00 0.00 0.00 68 1013.2
20260830173917 86 220 1.0 5.0 0.00 0.00 0.00 68 1013.3
20260830172905 85 259 1.0 6.0 0.00 0.00 0.00 67 1013.4
20260830172620 85 248 2.0 9.0 0.00 0.00 0.00 67 1013.4
20260830172114 85 154 2.0 9.0 0.00 0.00 0.00 68 1013.4
20260830171347 85 180 2.0 7.0 0.00 0.00 0.00 68 1013.7
20260830170843 85 215 2.0 7.0 0.00 0.00 0.00 70 1013.7
20260830170335 85 160 1.0 7.0 0.00 0.00 0.00 68 1013.8
20260830165830 85 205 1.0 6.0 0.00 0.00 0.00 71 1013.8
20260830165324 84 240 2.0 7.0 0.00 0.00 0.00 72 1013.8
20260830165040 83 221 3.0 8.0 0.00 0.00 0.00 72 1013.8
20260830164535 83 211 3.0 8.0 0.00 0.00 0.00 71 1014.0
20260830163805 83 207 2.0 8.0 0.00 0.00 0.00 72 1014.1
20260830163300 83 222 2.0 5.0 0.00 0.00 0.00 72 1014.1
20260830162754 83 217 2.0 7.0 0.00 0.00 0.00 71 1014.2
20260830162247 83 236 2.0 7.0 0.00 0.00 0.00 72 1014.2
20260830162003 83 231 1.0 6.0 0.00 0.00 0.00 72 1014.2
20260830161235 83 328 1.0 6.0 0.00 0.00 0.00 74 1014.3
20260830160729 82 124 1.0 6.0 0.00 0.00 0.00 74 1014.3
20260830160223 82 245 2.0 6.0 0.00 0.00 0.00 76 1014.3
20260830155720 81 276 2.0 6.0 0.00 0.00 0.00 76 1014.3
20260830155220 80 212 2.0 7.0 0.00 0.00 0.00 77 1014.4
20260830154717 80 171 2.0 7.0 0.00 0.00 0.00 76 1014.4
20260830154217 80 155 2.0 7.0 0.00 0.00 0.00 78 1014.2
20260830153717 80 151 2.0 5.0 0.00 0.00 0.00 79 1014.3
20260830153215 79 129 2.0 6.0 0.00 0.00 0.00 78 1014.3
20260830152715 79 213 1.0 6.0 0.00 0.00 0.00 78 1014.3
20260830151715 79 222 2.0 7.0 0.00 0.00 0.00 79 1014.3
20260830151215 79 328 1.0 6.0 0.00 0.00 0.00 81 1014.3
20260830150715 79 228 1.0 6.0 0.00 0.00 0.00 81 1014.4
20260830150215 78 203 1.0 5.0 0.00 0.00 0.00 82 1014.4
20260830145712 78 116 1.0 5.0 0.00 0.00 0.00 82 1014.3
20260830145212 78 161 1.0 5.0 0.00 0.00 0.00 83 1014.3
20260830144207 77 229 2.0 7.0 0.00 0.00 0.00 83 1014.3
20260830143707 77 206 2.0 6.0 0.00 0.00 0.00 84 1014.3
20260830143207 77 203 1.0 6.0 0.00 0.00 0.00 84 1014.4
20260830142700 77 129 1.0 4.0 0.00 0.00 0.00 85 1014.4
20260830142155 76 255 1.0 4.0 0.00 0.00 0.00 85 1014.4
20260830141649 76 224 1.0 4.0 0.00 0.00 0.00 85 1014.5
20260830141143 76 173 1.0 5.0 0.00 0.00 0.00 85 1014.5
20260830140637 76 50 1.0 5.0 0.00 0.00 0.00 85 1014.4
20260830140130 76 314 1.0 4.0 0.00 0.00 0.00 84 1014.5
20260830135625 76 223 1.0 4.0 0.00 0.00 0.00 84 1014.7
20260830135120 75 229 2.0 8.0 0.00 0.00 0.00 84 1014.7
20260830134613 75 186 2.0 8.0 0.00 0.00 0.00 84 1014.7
20260830134107 75 200 1.0 3.0 0.00 0.00 0.00 82 1014.8
20260830133600 75 143 1.0 6.0 0.00 0.00 0.00 81 1014.9
20260830133055 75 209 1.0 8.0 0.00 0.00 0.00 80 1015.0
20260830132809 74 155 1.0 8.0 0.00 0.00 0.00 78 1015.0
20260830132043 74 155 1.0 6.0 0.00 0.00 0.00 75 1015.1
20260830131758 74 214 1.0 5.0 0.00 0.00 0.00 74 1015.1
20260830131030 74 226 1.0 5.0 0.00 0.00 0.00 74 1015.2
20260830130524 73 226 0.0 3.0 0.00 0.00 0.00 73 1015.3
20260830130240 73 189 0.0 3.0 0.00 0.00 0.00 73 1015.3
20260830125515 73 163 0.0 4.0 0.00 0.00 0.00 73 1015.4
20260830125007 73 274 1.0 4.0 0.00 0.00 0.00 73 1015.4
20260830124501 72 274 1.0 4.0 0.00 0.00 0.00 73 1015.4
20260830123956 72 225 1.0 4.0 0.00 0.00 0.00 74 1015.4
20260830123450 72 229 0.0 2.0 0.00 0.00 0.00 74 1015.4
20260830122942 71 212 1.0 4.0 0.00 0.00 0.00 74 1015.5
20260830122437 71 245 1.0 4.0 0.00 0.00 0.00 74 1015.5
20260830121931 71 193 0.0 4.0 0.00 0.00 0.00 74 1015.5
20260830121424 71 250 0.0 3.0 0.00 0.00 0.00 74 1015.5
20260830120920 70 141 0.0 3.0 0.00 0.00 0.00 74 1015.5
20260830120413 70 218 0.0 3.0 0.00 0.00 0.00 74 1015.4
20260830115906 70 231 0.0 2.0 0.00 0.00 0.00 74 1015.4
20260830115401 70 232 0.0 1.0 0.00 0.00 0.00 75 1015.4
20260830114855 70 232 0.0 3.0 0.00 0.00 0.00 75 1015.4
20260830114350 69 232 0.0 3.0 0.00 0.00 0.00 75 1015.5
20260830113843 69 237 0.0 1.0 0.00 0.00 0.00 75 1015.5
20260830113337 69 214 0.0 1.0 0.00 0.00 0.00 75 1015.4
20260830112831 69 295 0.0 1.0 0.00 0.00 0.00 75 1015.5
20260830112325 68 295 0.0 0.0 0.00 0.00 0.00 75 1015.6
20260830111820 67 306 0.0 0.0 0.00 0.00 0.00 75 1015.5
20260830111312 67 306 0.0 0.0 0.00 0.00 0.00 75 1015.5
20260830111031 67 306 0.0 0.0 0.00 0.00 0.00 75 1015.5
20260830110301 66 306 0.0 0.0 0.00 0.00 0.00 75 1015.6
20260830105755 66 306 0.0 0.0 0.00 0.00 0.00 75 1015.5
20260830105508 66 306 0.0 0.0 0.00 0.00 0.00 75 1015.4
20260830104743 66 306 0.0 0.0 0.00 0.00 0.00 75 1015.4
20260830104500 66 306 0.0 0.0 0.00 0.00 0.00 75 1015.4
20260830103731 66 306 0.0 0.0 0.00 0.00 0.00 75 1015.4
20260830103224 66 306 0.0 0.0 0.00 0.00 0.00 75 1015.4
20260830102720 66 306 0.0 0.0 0.00 0.00 0.00 76 1015.4
20260830102212 66 306 0.0 0.0 0.00 0.00 0.00 76 1015.2
20260830101933 66 306 0.0 0.0 0.00 0.00 0.00 76 1015.3
20260830101212 66 306 0.0 0.0 0.00 0.00 0.00 75 1015.3
20260830100941 66 306 0.0 0.0 0.00 0.00 0.00 75 1015.2
20260830100211 66 306 0.0 0.0 0.00 0.00 0.00 75 1015.3
20260830095936 65 306 0.0 0.0 0.00 0.00 0.00 75 1015.3
20260830095210 65 306 0.0 0.0 0.00 0.00 0.00 76 1015.4
20260830094707 65 306 0.0 0.0 0.00 0.00 0.00 76 1015.3
20260830094421 65 306 0.0 0.0 0.00 0.00 0.00 76 1015.3
20260830093705 65 306 0.0 0.0 0.00 0.00 0.00 76 1015.1
20260830093204 65 306 0.0 0.0 0.00 0.00 0.00 76 1015.1
20260830092702 65 306 0.0 0.0 0.00 0.00 0.00 76 1015.1
20260830091700 65 306 0.0 0.0 0.00 0.00 0.00 76 1014.9
20260830091157 65 306 0.0 0.0 0.00 0.00 0.00 76 1014.9
20260830090656 66 306 0.0 0.0 0.00 0.00 0.00 76 1014.9
20260830090157 66 306 0.0 0.0 0.00 0.00 0.00 76 1014.9
20260830085656 66 306 0.0 0.0 0.00 0.00 0.00 75 1014.9
20260830084652 66 306 0.0 0.0 0.00 0.00 0.00 75 1015.0
20260830084152 65 306 0.0 0.0 0.00 0.00 0.00 75 1015.1
20260830083652 65 306 0.0 0.0 0.00 0.00 0.00 76 1015.1
20260830083152 65 306 0.0 0.0 0.00 0.00 0.00 76 1015.1
20260830082652 65 306 0.0 0.0 0.00 0.00 0.00 76 1015.1
20260830082423 65 306 0.0 0.0 0.00 0.00 0.00 76 1015.1
20260830081915 64 306 0.0 0.0 0.00 0.00 0.00 76 1015.1
20260830081152 64 306 0.0 0.0 0.00 0.00 0.00 77 1015.1
20260830080650 64 306 0.0 0.0 0.00 0.00 0.00 77 1015.1
20260830080150 64 306 0.0 0.0 0.00 0.00 0.00 77 1015.1
20260830075650 64 306 0.0 0.0 0.00 0.00 0.00 77 1015.1
20260830075150 64 306 0.0 0.0 0.00 0.00 0.00 77 1015.2
20260830074650 64 306 0.0 0.0 0.00 0.00 0.00 77 1015.1
20260830074150 64 306 0.0 0.0 0.00 0.00 0.00 77 1015.2
20260830073911 64 306 0.0 0.0 0.00 0.00 0.00 77 1015.2
20260830073150 64 306 0.0 0.0 0.00 0.00 0.00 77 1015.3
20260830072650 64 306 0.0 0.0 0.00 0.00 0.00 77 1015.2
20260830072144 64 306 0.0 0.0 0.00 0.00 0.00 78 1015.2
20260830071645 64 306 0.0 0.0 0.00 0.00 0.00 78 1015.3
20260830071144 64 306 0.0 0.0 0.00 0.00 0.00 78 1015.3
20260830070645 64 306 0.0 0.0 0.00 0.00 0.00 78 1015.3
20260830070144 64 306 0.0 0.0 0.00 0.00 0.00 78 1015.3
20260830065644 64 306 0.0 0.0 0.00 0.00 0.00 78 1015.4
20260830065144 64 306 0.0 0.0 0.00 0.00 0.00 78 1015.4
20260830064645 64 306 0.0 0.0 0.00 0.00 0.00 78 1015.4
20260830064145 64 306 0.0 0.0 0.00 0.00 0.00 78 1015.4
20260830063640 64 306 0.0 0.0 0.00 0.00 0.00 78 1015.4
20260830063140 64 306 0.0 0.0 0.00 0.00 0.00 78 1015.4
20260830062640 64 306 0.0 0.0 0.00 0.00 0.00 78 1015.5
20260830062140 64 306 0.0 0.0 0.00 0.00 0.00 78 1015.6
20260830061903 64 306 0.0 0.0 0.00 0.00 0.00 78 1015.7
20260830061143 63 306 0.0 0.0 0.00 0.00 0.00 78 1015.7
20260830060644 63 306 0.0 0.0 0.00 0.00 0.00 78 1015.8
20260830060142 63 306 0.0 0.0 0.00 0.00 0.00 78 1015.7
20260830055643 63 306 0.0 0.0 0.00 0.00 0.00 78 1015.8
20260830055134 63 306 0.0 0.0 0.00 0.00 0.00 78 1015.9
20260830054630 63 306 0.0 0.0 0.00 0.00 0.00 78 1016.0
20260830054124 63 306 0.0 0.0 0.00 0.00 0.00 78 1016.0
20260830053618 62 306 0.0 0.0 0.00 0.00 0.00 79 1015.9
20260830053111 62 306 0.0 0.0 0.00 0.00 0.00 79 1016.0
20260830052606 62 306 0.0 0.0 0.00 0.00 0.00 79 1015.9
20260830052100 62 306 0.0 0.0 0.00 0.00 0.00 79 1015.8
20260830051554 62 306 0.0 0.0 0.00 0.00 0.00 80 1015.7
20260830051048 62 306 0.0 0.0 0.00 0.00 0.00 80 1015.7
20260830050543 62 306 0.0 0.0 0.00 0.00 0.00 80 1015.7
20260830045530 62 306 0.0 0.0 0.00 0.00 0.00 80 1015.7
20260830045025 62 306 0.0 0.0 0.00 0.00 0.00 80 1015.7
20260830044519 62 306 0.0 0.0 0.00 0.00 0.00 80 1015.7
20260830044013 62 306 0.0 0.0 0.00 0.00 0.00 80 1015.6
20260830043506 62 306 0.0 0.0 0.00 0.00 0.00 81 1015.6
20260830043000 62 306 0.0 0.0 0.00 0.00 0.00 81 1015.5
20260830042455 62 306 0.0 0.0 0.00 0.00 0.00 81 1015.5
20260830041948 62 306 0.0 0.0 0.00 0.00 0.00 81 1015.5
20260830040937 62 306 0.0 0.0 0.00 0.00 0.00 81 1015.5
20260830040430 62 306 0.0 0.0 0.00 0.00 0.00 82 1015.4
20260830035924 62 306 0.0 0.0 0.00 0.00 0.00 82 1015.5
20260830035418 62 306 0.0 0.0 0.00 0.00 0.00 82 1015.5
20260830034912 63 306 0.0 0.0 0.00 0.00 0.00 82 1015.5
20260830033900 63 306 0.0 0.0 0.00 0.00 0.00 82 1015.4
20260830033353 63 306 0.0 0.0 0.00 0.00 0.00 82 1015.4
20260830032848 63 306 0.0 0.0 0.00 0.00 0.00 82 1015.3
20260830032342 63 306 0.0 0.0 0.00 0.00 0.00 83 1015.3
20260830031836 63 306 0.0 0.0 0.00 0.00 0.00 83 1015.3
20260830031330 63 306 0.0 0.0 0.00 0.00 0.00 83 1015.2
20260830030824 63 306 0.0 0.0 0.00 0.00 0.00 83 1015.3
20260830030318 63 306 0.0 0.0 0.00 0.00 0.00 83 1015.3
20260830025813 63 306 0.0 0.0 0.00 0.00 0.00 84 1015.2
20260830025524 63 306 0.0 0.0 0.00 0.00 0.00 83 1015.3
20260830024800 63 306 0.0 0.0 0.00 0.00 0.00 83 1015.4
20260830024254 63 306 0.0 0.0 0.00 0.00 0.00 84 1015.4
20260830023748 63 306 0.0 0.0 0.00 0.00 0.00 84 1015.4
20260830023243 64 306 0.0 0.0 0.00 0.00 0.00 84 1015.4
20260830022736 64 306 0.0 0.0 0.00 0.00 0.00 84 1015.3
20260830022230 64 306 0.0 0.0 0.00 0.00 0.00 84 1015.3
20260830021724 64 306 0.0 0.0 0.00 0.00 0.00 85 1015.4
20260830021218 64 306 0.0 0.0 0.00 0.00 0.00 85 1015.4
20260830020712 64 306 0.0 0.0 0.00 0.00 0.00 85 1015.3
20260830020210 64 306 0.0 0.0 0.00 0.00 0.00 85 1015.3
20260830015711 64 306 0.0 0.0 0.00 0.00 0.00 85 1015.3
20260830015207 65 306 0.0 0.0 0.00 0.00 0.00 85 1015.2
20260830014705 65 306 0.0 0.0 0.00 0.00 0.00 85 1015.2
20260830014203 65 306 0.0 0.0 0.00 0.00 0.00 85 1015.1
20260830013703 65 306 0.0 0.0 0.00 0.00 0.00 85 1015.1
20260830013202 65 306 0.0 0.0 0.00 0.00 0.00 85 1015.0
20260830012700 65 306 0.0 0.0 0.00 0.00 0.00 85 1015.0
20260830012422 65 306 0.0 0.0 0.00 0.00 0.00 85 1015.1
20260830011700 66 306 0.0 0.0 0.00 0.00 0.00 85 1015.0
20260830011418 66 306 0.0 0.0 0.00 0.00 0.00 85 1015.0
20260830010918 66 306 0.0 0.0 0.00 0.00 0.00 85 1014.9
20260830010155 66 306 0.0 0.0 0.00 0.00 0.00 85 1014.8
20260830005921 66 306 0.0 0.0 0.00 0.00 0.00 85 1014.8